Wetterdaten: aktuell Dienstag, 01.12.2020 08:50
Datum Zeit Temp 2m Temp 2m ob Temp 10cm Feuchte 2 m Regen Wind mittel Richtung Richtung Taupunkt Windben
01.12.2020 08:50 0,2 C -0,1 C -0,6 C 90 % 0,0 l/m 0,0 km/h N-NW 337 -1,2 C 0,0 km/h
01.12.2020 08:45 0,2 C -0,1 C -0,6 C 90 % 0,0 l/m 0,0 km/h NW 315 -1,2 C 0,0 km/h
01.12.2020 08:40 0,1 C -0,2 C -0,6 C 90 % 0,0 l/m 0,0 km/h O-SO 112 -1,3 C 0,0 km/h
01.12.2020 08:35 0,1 C -0,2 C -0,6 C 90 % 0,0 l/m 0,0 km/h O-SO 112 -1,3 C 0,0 km/h
01.12.2020 08:30 0,1 C -0,2 C -0,6 C 90 % 0,0 l/m 0,0 km/h S-SO 157 -1,3 C 0,0 km/h
01.12.2020 08:25 0,1 C -0,2 C -0,6 C 90 % 0,0 l/m 0,0 km/h NO 45 -1,3 C 0,0 km/h
01.12.2020 08:20 0,0 C -0,3 C -0,6 C 90 % 0,0 l/m 0,0 km/h N 360 -1,4 C 0,0 km/h
01.12.2020 08:15 0,0 C -0,3 C -0,6 C 90 % 0,0 l/m 0,0 km/h S-SO 157 -1,4 C 0,0 km/h
01.12.2020 08:10 0,0 C -0,3 C -0,6 C 90 % 0,0 l/m 0,0 km/h S-SO 157 -1,4 C 0,0 km/h
01.12.2020 08:05 0,0 C -0,3 C -0,6 C 90 % 0,0 l/m 0,0 km/h S 180 -1,4 C 0,0 km/h
01.12.2020 08:00 0,0 C -0,3 C -0,6 C 90 % 0,0 l/m 0,0 km/h S-SW 202 -1,4 C 0,0 km/h
01.12.2020 07:55 -0,1 C -0,3 C -0,6 C 90 % 0,0 l/m 0,0 km/h S 180 -1,5 C 0,0 km/h
01.12.2020 07:50 -0,1 C -0,4 C -0,6 C 90 % 0,0 l/m 0,0 km/h S-SW 202 -1,5 C 0,0 km/h
01.12.2020 07:45 -0,1 C -0,4 C -0,6 C 90 % 0,0 l/m 0,0 km/h SO 135 -1,5 C 0,0 km/h
01.12.2020 07:40 -0,1 C -0,4 C -0,6 C 90 % 0,0 l/m 0,0 km/h O-SO 112 -1,5 C 0,0 km/h
01.12.2020 07:35 -0,1 C -0,4 C -0,6 C 90 % 0,0 l/m 0,2 km/h SO 135 -1,5 C 0,0 km/h
01.12.2020 07:30 -0,1 C -0,4 C -0,6 C 90 % 0,0 l/m 0,3 km/h W-SW 247 -1,5 C 0,0 km/h
01.12.2020 07:25 -0,1 C -0,4 C -0,6 C 90 % 0,0 l/m 0,2 km/h S-SW 202 -1,5 C 0,0 km/h
01.12.2020 07:20 -0,1 C -0,4 C -0,6 C 90 % 0,0 l/m 0,0 km/h S-SO 157 -1,5 C 0,0 km/h
01.12.2020 07:15 -0,1 C -0,4 C -0,6 C 90 % 0,0 l/m 0,0 km/h NW 315 -1,5 C 0,0 km/h
01.12.2020 07:10 -0,1 C -0,4 C -0,6 C 90 % 0,0 l/m 0,0 km/h W 270 -1,5 C 0,0 km/h
01.12.2020 07:05 -0,1 C -0,4 C -0,6 C 90 % 0,0 l/m 0,0 km/h S-SW 202 -1,5 C 0,0 km/h
01.12.2020 07:00 -0,1 C -0,4 C -0,6 C 90 % 0,0 l/m 0,0 km/h S-SW 202 -1,5 C 0,0 km/h
01.12.2020 06:55 -0,1 C -0,5 C -0,6 C 90 % 0,0 l/m 0,0 km/h W-SW 247 -1,5 C 0,0 km/h
01.12.2020 06:50 -0,1 C -0,4 C -0,6 C 90 % 0,0 l/m 0,0 km/h O-SO 112 -1,5 C 0,0 km/h
01.12.2020 06:45 -0,1 C -0,5 C -0,6 C 90 % 0,0 l/m 0,3 km/h SW 225 -1,5 C 0,0 km/h
_ Min-Zeit 09:00 09:00 09:00 15:55 - 09:00 - - 09:00 09:00
Minimum _ -5,5 C -6,1 C -0,6 C 74 % - 0,0 km/h - - -6,9 C 0,0 km/h
_ Max-Zeit 13:45 12:55 09:00 11:15 09:00 14:45 - - 13:25 22:35
Maximum _ 2,9 C 6,1 C -0,6 C 92 % 0,0 l/m 4,7 km/h
NO
- - -0,1 C 11,7 km/h
O
Durchschnitt _ -0,2 C 0,3 C -0,6 C 86 % #0,0 l/m 0,7 km/h N-NW - -2,4 C 1,2 km/h